FENGYUN 1C DEB

Satellite information

Favourite Embed

Satellite Type and Status

DEBRISIN ORBIT

Key statistics

Satellite FENGYUN 1C DEB at a glance.

Uptime

9615

Days in orbit

Revolutions

≈ 14.5

Per day

Orbit

SSO

Sun Synchronous Orbit

Inclination

99.0

Latest

Satellite identification and parameters

Extended collection of information and parameters for FENGYUN 1C DEB.

Object identification

Identified? True

Debris? True

Object name: FENGYUN 1C DEB

International designator: 1999-025AWT

Object number (NORAD): 30857

Object ID (CCSDS): 30857

Country: PEOPLES REPUBLIC OF CHINA (PRC)

Current information (Y/N): Y

RCS size: SMALL

Orbital parameters

Period: 99.597 minutes

Inclination: 98.9743 deg

SMA: 7117.449 km

Apoapsis: 769.013 km

Periapsis: 709.614 km

RAAN: 229.7564 deg

Eccentricy: 0.00417279

Argument of periapsis: 228.4145 deg

Mean anomaly: 131.3465 deg

Mean motion: 14.45826663 rev/day

Mean motion (dot): 0.00040111 rev/day2

B* drag term: 0.011127612 1/REarth

Two-line elements (TLE)

Creation date: Sept. 3, 2025, 10:15 a.m.

Reference frame: TEME

Reference center: EARTH

Epoch: Sept. 3, 2025, 5:09 a.m. UTC

TLE line 0: 0 FENGYUN 1C DEB

TLE line 1: 1 30857U 99025AWT 25246.21516933 .00040111 00000-0 11128-1 0 9998

TLE line 2: 2 30857 98.9743 229.7564 0041728 228.4145 131.3465 14.45826663952686

Live tracking on map

Real-time ground track for satellite FENGYUN 1C DEB.

In-orbit conjunctions

A list of the most updated potential collisions computed for object FENGYUN 1C DEB.

Target Orbit TCA Probability of collision Miss distance Type
COSMOS 2251 DEB LEO 2025-01-29 09:17:37 0.0001028205 332.0 (m) DEBRIS
SL-8 DEB LEO 2024-07-28 19:04:46 0.0001075051 100.0 (m) DEBRIS

Associated space launch

Chinese polar orbiting meteorological satellite

FENGYUN 1C DEB was lifted into orbit during the mission ‘Long March 4B | Feng Yun 1C’, on board a Long March 4B space rocket.

The launch took place on May 10, 1999, 1:33 a.m. from Launch Complex 7.

For more information about the launch, click the button.

Launch to space Long March 4B | Feng Yun 1C
Long March 4B | Feng Yun 1C

Agency: N/A

Status: Launch Successful

Launch date: May 10, 1999, 1:33 a.m. UTC

Rocket: Long March 4B

Launch pad: Launch Complex 7

Location: Taiyuan Satellite Launch Center, People's Republic of China

...

Latest news about this satellite

There are no fresh news available about this satellite. Check back as we update our databases every day.


Newsletter sign-up

Weekly statistics, charts and insights to help you stay on top of the space industry.